When you browse on this site, cookies collect data to enhance your experience and personalize the content and advertising you see.
Visit our Privacy Policy to learn more. By continuing to use the site, you agree to this use of cookies and data.
  • In Österreich
  • Länderverzeichnis
  • Für 7 Tage
  • Wassertemperatur
  • Satellitenkarten
  • Wetterkarte
  • News
  • Widgets
  • user-avatar
    Anmelden

    Stündliche Wetter Sankt Pölten

    Heute, 25 Mai, Samstag

    Zeit Temperatur Niederschläge Wind Luftdruck Luftfeuchtigkeit
    00:00 +12°C° 0 mm 1 m/S 734 mmHg 87%
    01:00 +12°C° 0 mm 1 m/S 734 mmHg 88%
    02:00 +12°C° 0 mm 1 m/S 734 mmHg 89%
    03:00 +12°C° 0 mm 1 m/S 734 mmHg 89%
    04:00 +12°C° 0 mm 1 m/S 734 mmHg 89%
    05:00 +14°C° 0 mm 1 m/S 734 mmHg 84%
    06:00 +15°C° 0 mm 1 m/S 734 mmHg 78%
    07:00 +18°C° 0 mm 1 m/S 734 mmHg 72%
    08:00 +20°C° 0.1 mm 1 m/S 734 mmHg 67%
    09:00 +21°C° 0.1 mm 1 m/S 734 mmHg 63%
    10:00 +23°C° 0.1 mm 2 m/S 734 mmHg 58%
    11:00 +23°C° 0.2 mm 2 m/S 734 mmHg 56%
    12:00 +24°C° 0.2 mm 2 m/S 734 mmHg 53%
    13:00 +25°C° 0.2 mm 2 m/S 734 mmHg 50%
    14:00 +25°C° 0.1 mm 1 m/S 734 mmHg 50%
    15:00 +25°C° 0.1 mm 1 m/S 734 mmHg 50%
    16:00 +23°C° 0.1 mm 0 m/S 733 mmHg 50%
    17:00 +21°C° 0.1 mm 0 m/S 733 mmHg 58%
    18:00 +19°C° 0.1 mm 0 m/S 733 mmHg 65%
    19:00 +17°C° 0.1 mm 0 m/S 733 mmHg 73%
    20:00 +16°C° 0 mm 0 m/S 734 mmHg 77%
    21:00 +16°C° 0 mm 1 m/S 734 mmHg 80%
    22:00 +15°C° 0 mm 1 m/S 734 mmHg 83%
    23:00 +15°C° 0 mm 1 m/S 734 mmHg 85%

    Morgen, 26 Mai, Sonntag

    Zeit Temperatur Niederschläge Wind Luftdruck Luftfeuchtigkeit
    00:00 +14°C° 0 mm 1 m/S 734 mmHg 88%
    01:00 +14°C° 0 mm 1 m/S 734 mmHg 90%
    02:00 +13°C° 0 mm 1 m/S 734 mmHg 91%
    03:00 +13°C° 0 mm 1 m/S 734 mmHg 93%
    04:00 +12°C° 0 mm 1 m/S 734 mmHg 94%
    05:00 +14°C° 0 mm 1 m/S 734 mmHg 89%
    06:00 +16°C° 0 mm 1 m/S 734 mmHg 84%
    07:00 +18°C° 0 mm 1 m/S 735 mmHg 78%
    08:00 +19°C° 0 mm 2 m/S 735 mmHg 71%
    09:00 +20°C° 0 mm 2 m/S 735 mmHg 64%
    10:00 +23°C° 0 mm 2 m/S 735 mmHg 57%
    11:00 +24°C° 0 mm 2 m/S 735 mmHg 55%
    12:00 +25°C° 0 mm 2 m/S 734 mmHg 53%
    13:00 +26°C° 0 mm 1 m/S 734 mmHg 51%
    14:00 +25°C° 0.1 mm 1 m/S 734 mmHg 52%
    15:00 +25°C° 0.1 mm 1 m/S 734 mmHg 53%
    16:00 +25°C° 0.1 mm 1 m/S 733 mmHg 54%
    17:00 +24°C° 0.4 mm 1 m/S 733 mmHg 63%
    18:00 +20°C° 0.4 mm 0 m/S 733 mmHg 71%
    19:00 +18°C° 0.4 mm 0 m/S 733 mmHg 80%
    20:00 +17°C° 0.1 mm 0 m/S 733 mmHg 82%
    21:00 +16°C° 0.1 mm 0 m/S 733 mmHg 85%
    22:00 +15°C° 0.1 mm 0 m/S 734 mmHg 87%
    23:00 +15°C° 0 mm 1 m/S 733 mmHg 89%

    übermorgen, 27 Mai, Montag

    Zeit Temperatur Niederschläge Wind Luftdruck Luftfeuchtigkeit
    00:00 +15°C° 0 mm 1 m/S 733 mmHg 90%
    01:00 +14°C° 0 mm 1 m/S 733 mmHg 92%
    02:00 +14°C° 0 mm 1 m/S 733 mmHg 91%
    03:00 +14°C° 0 mm 1 m/S 733 mmHg 91%
    04:00 +14°C° 0 mm 1 m/S 732 mmHg 91%
    05:00 +15°C° 0 mm 1 m/S 733 mmHg 88%
    06:00 +18°C° 0 mm 1 m/S 733 mmHg 85%
    07:00 +19°C° 0 mm 1 m/S 733 mmHg 82%
    08:00 +21°C° 0 mm 1 m/S 733 mmHg 74%
    09:00 +23°C° 0 mm 1 m/S 733 mmHg 66%
    10:00 +25°C° 0 mm 1 m/S 733 mmHg 58%
    11:00 +25°C° 0.1 mm 1 m/S 733 mmHg 59%
    12:00 +25°C° 0.1 mm 1 m/S 732 mmHg 60%
    13:00 +25°C° 0.1 mm 1 m/S 732 mmHg 62%
    14:00 +25°C° 0.1 mm 1 m/S 731 mmHg 61%
    15:00 +25°C° 0.1 mm 1 m/S 731 mmHg 60%
    16:00 +25°C° 0.1 mm 1 m/S 731 mmHg 59%
    17:00 +24°C° 0.3 mm 1 m/S 730 mmHg 68%
    18:00 +22°C° 0.3 mm 1 m/S 730 mmHg 76%
    19:00 +21°C° 0.3 mm 1 m/S 730 mmHg 85%
    20:00 +20°C° 0.6 mm 1 m/S 730 mmHg 88%
    21:00 +19°C° 0.6 mm 1 m/S 730 mmHg 91%
    22:00 +18°C° 0.6 mm 1 m/S 730 mmHg 93%
    23:00 +18°C° 0.7 mm 1 m/S 730 mmHg 94%

    28 Mai, Dienstag

    Zeit Temperatur Niederschläge Wind Luftdruck Luftfeuchtigkeit
    00:00 +18°C° 0.7 mm 1 m/S 729 mmHg 95%
    01:00 +15°C° 0.7 mm 0 m/S 729 mmHg 95%
    02:00 +15°C° 0.1 mm 0 m/S 729 mmHg 95%
    03:00 +14°C° 0.1 mm 0 m/S 728 mmHg 95%
    04:00 +13°C° 0.1 mm 0 m/S 728 mmHg 95%
    05:00 +15°C° 0 mm 0 m/S 728 mmHg 92%
    06:00 +16°C° 0 mm 0 m/S 728 mmHg 89%
    07:00 +17°C° 0 mm 0 m/S 728 mmHg 86%
    08:00 +19°C° 0.3 mm 0 m/S 728 mmHg 81%
    09:00 +22°C° 0.3 mm 1 m/S 728 mmHg 75%
    10:00 +24°C° 0.3 mm 1 m/S 727 mmHg 69%
    11:00 +23°C° 1.5 mm 2 m/S 727 mmHg 75%
    12:00 +21°C° 1.5 mm 3 m/S 727 mmHg 81%
    13:00 +20°C° 1.5 mm 3 m/S 727 mmHg 87%
    14:00 +19°C° 0.9 mm 4 m/S 727 mmHg 86%
    15:00 +17°C° 0.9 mm 4 m/S 728 mmHg 85%
    16:00 +15°C° 0.9 mm 4 m/S 728 mmHg 85%
    17:00 +14°C° 0.2 mm 4 m/S 729 mmHg 86%
    18:00 +13°C° 0.2 mm 4 m/S 729 mmHg 88%
    19:00 +12°C° 0.2 mm 3 m/S 730 mmHg 89%
    20:00 +11°C° 0 mm 3 m/S 730 mmHg 90%
    21:00 +11°C° 0 mm 3 m/S 731 mmHg 90%
    22:00 +12°C° 0 mm 2 m/S 731 mmHg 90%
    23:00 +10°C° 0 mm 2 m/S 731 mmHg 91%

    29 Mai, Mittwoch

    Zeit Temperatur Niederschläge Wind Luftdruck Luftfeuchtigkeit
    00:00 +10°C° 0 mm 2 m/S 732 mmHg 92%
    01:00 +9°C° 0 mm 2 m/S 732 mmHg 93%
    02:00 +10°C° 0 mm 2 m/S 732 mmHg 93%
    03:00 +11°C° 0 mm 1 m/S 732 mmHg 92%
    04:00 +11°C° 0 mm 1 m/S 733 mmHg 91%
    05:00 +12°C° 0.1 mm 1 m/S 733 mmHg 91%
    06:00 +12°C° 0.1 mm 1 m/S 734 mmHg 91%
    07:00 +12°C° 0.1 mm 1 m/S 734 mmHg 91%
    08:00 +12°C° 0.3 mm 1 m/S 734 mmHg 92%
    09:00 +12°C° 0.3 mm 1 m/S 735 mmHg 93%
    10:00 +12°C° 0.3 mm 1 m/S 735 mmHg 94%
    11:00 +12°C° 0.5 mm 1 m/S 736 mmHg 93%
    12:00 +13°C° 0.5 mm 1 m/S 736 mmHg 93%
    13:00 +13°C° 0.5 mm 2 m/S 737 mmHg 93%
    14:00 +13°C° 0.8 mm 2 m/S 737 mmHg 93%
    15:00 +13°C° 0.8 mm 1 m/S 737 mmHg 93%
    16:00 +13°C° 0.8 mm 1 m/S 737 mmHg 93%
    17:00 +12°C° 0.5 mm 1 m/S 738 mmHg 94%
    18:00 +12°C° 0.5 mm 1 m/S 738 mmHg 95%
    19:00 +12°C° 0.5 mm 1 m/S 739 mmHg 95%
    20:00 +12°C° 0.6 mm 1 m/S 739 mmHg 96%
    21:00 +11°C° 0.6 mm 1 m/S 740 mmHg 96%
    22:00 +11°C° 0.6 mm 1 m/S 740 mmHg 97%
    23:00 +11°C° 0.5 mm 1 m/S 740 mmHg 97%

    30 Mai, Donnerstag

    Zeit Temperatur Niederschläge Wind Luftdruck Luftfeuchtigkeit
    00:00 +11°C° 0.5 mm 1 m/S 741 mmHg 97%
    01:00 +10°C° 0.5 mm 1 m/S 741 mmHg 97%
    02:00 +10°C° 0.9 mm 1 m/S 741 mmHg 97%
    03:00 +10°C° 0.9 mm 1 m/S 741 mmHg 97%
    04:00 +10°C° 0.9 mm 1 m/S 741 mmHg 97%
    05:00 +10°C° 0.4 mm 1 m/S 741 mmHg 96%
    06:00 +11°C° 0.4 mm 1 m/S 741 mmHg 95%
    07:00 +11°C° 0.4 mm 1 m/S 741 mmHg 94%
    08:00 +12°C° 0 mm 1 m/S 741 mmHg 89%
    09:00 +12°C° 0 mm 1 m/S 741 mmHg 84%
    10:00 +13°C° 0 mm 1 m/S 741 mmHg 80%
    11:00 +14°C° 0 mm 1 m/S 741 mmHg 73%
    12:00 +15°C° 0 mm 2 m/S 741 mmHg 66%
    13:00 +16°C° 0 mm 2 m/S 740 mmHg 60%
    14:00 +16°C° 0.1 mm 2 m/S 740 mmHg 63%
    15:00 +16°C° 0.1 mm 2 m/S 740 mmHg 67%
    16:00 +15°C° 0.1 mm 2 m/S 740 mmHg 70%
    17:00 +15°C° 0.1 mm 1 m/S 740 mmHg 76%
    18:00 +14°C° 0.1 mm 1 m/S 740 mmHg 81%
    19:00 +13°C° 0.1 mm 1 m/S 740 mmHg 87%
    20:00 +12°C° 0 mm 1 m/S 740 mmHg 85%
    21:00 +12°C° 0 mm 1 m/S 740 mmHg 84%
    22:00 +12°C° 0 mm 2 m/S 740 mmHg 83%
    23:00 +12°C° 0 mm 2 m/S 740 mmHg 84%
    Mehr zeigen